Vertical_Velocity
-0 -1 1 2 -1 -1 -0 -3 4 -4 6 -1 4 5 2 2 -0 -1 4 -1 1 -1 0 -1 -0 -1 -2 -3 0 -0 1 1 1
-1 -1 0 1 -2 -1 -2 -3 -4 -3 5 1 -0 4 0 4 3 -2 5 0 5 -1 -1 1 -1 -0 1 0 1 -1 -1 1 -1
0 -0 -3 1 0 1 -4 2 6 3 -17 -3 -1 -1 1 -1 5 0 0 9 -1 -1 0 -2 -1 -1 -0 1 1 -0 0 0 -2
-3 -1 -1 -1 -1 -1 -0 3 2 -3 4 -4 -2 -0 3 -0 -0 6 0 5 -3 -3 4 -2 -3 0 0 1 0 0 -0 -0 0
3 -1 -2 -2 -2 -2 -3 -1 4 1 -0 1 -2 -0 1 2 -2 1 -0 11 -1 -0 -1 5 -1 -6 -4 -4 1 1 1 -0 -0
3 2 -1 -1 -1 -1 1 -1 -5 -2 -2 -4 -4 -1 -1 4 -1 1 1 7 5 -1 -1 -7 0 -1 -6 -3 -7 -1 -0 3 0
3 -0 -0 1 -3 -0 -1 0 1 -2 -2 3 -1 -2 -3 13 5 2 -0 7 5 2 1 2 -2 1 -3 6 -9 -2 0 3 -3
2 1 -4 -0 -1 0 4 2 3 1 -3 -4 -5 0 -1 -3 -8 3 3 8 8 11 5 7 3 -1 -1 1 -1 -2 -2 -5 1
0 1 -2 2 0 -1 3 3 1 -1 -1 -2 2 1 3 1 -7 -3 0 10 7 10 12 6 -1 2 4 7 4 1 -1 -1 3
-3 -0 -2 -2 3 2 1 1 1 4 1 4 4 3 1 3 1 -3 0 -1 5 3 23 16 4 5 1 1 -0 0 1 -2 -0
4 2 -0 -3 -6 4 1 2 -2 -5 -2 -2 -3 -0 -4 -4 -8 -2 1 -3 -0 2 3 2 4 3 1 1 1 -1 -0 -2 -2
-2 1 2 -2 -3 1 2 1 -2 3 2 -1 -2 1 -1 -2 -0 -1 -1 -3 -4 -4 -3 -6 2 7 7 8 3 -0 3 2 -1
1 1 -1 0 -0 -2 3 2 -2 -2 -3 0 -3 -1 1 -1 0 -0 1 -1 1 2 -0 1 -2 -5 2 6 3 -1 1 -1 2
2 -1 1 -1 -0 1 2 1 -1 -1 0 2 -4 -1 1 2 3 2 2 1 1 3 2 -0 1 2 -2 -3 -0 0 -1 1 0
-1 4 -0 2 -3 2 2 0 1 -1 -1 -1 -4 2 1 4 4 1 3 0 -0 1 1 -0 -0 -1 1 -2 1 2 0 0 -2
-3 -2 -2 0 1 -0 1 1 2 3 -2 -2 -1 -1 0 4 2 3 3 0 -2 -2 0 -0 -1 -1 -1 -0 -0 -2 -2 1 3
-4 -2 -4 -1 -1 2 -1 -0 2 2 -0 3 3 -1 3 3 5 2 3 1 1 -1 -2 0 0 1 -2 1 -1 -0 2 2 0
1 -2 -2 1 -3 4 1 1 -2 2 1 2 -1 2 1 0 1 6 -0 1 0 0 -2 -3 -1 -1 -2 1 -1 -1 2 0 0
1 -0 -2 -3 0 -2 -1 2 -1 0 0 1 -0 2 1 -1 -2 2 3 1 -0 1 2 -2 -2 -1 -1 -1 -1 -0 2 0 0
1 2 2 -1 -0 0 0 -2 -2 -0 1 1 2 1 -0 3 -1 -1 -2 2 2 -0 -3 -1 -2 -2 -1 -3 -1 0 1 0 -1
Height
1555 1556 1556 1556 1556 1556 1557 1557 1558 1558 1558 1557 1559 1557 1558 1557 1557 1558 1558 1559 1559 1560 1560 1560 1561 1561 1561 1562 1562 1562 1561 1561 1561
1558 1558 1559 1559 1559 1559 1559 1559 1559 1560 1563 1562 1562 1561 1561 1561 1560 1561 1561 1560 1562 1562 1563 1563 1563 1564 1564 1564 1564 1564 1564 1564 1564
1560 1561 1561 1562 1561 1561 1561 1561 1561 1560 1563 1565 1564 1564 1564 1564 1563 1563 1563 1563 1563 1564 1565 1566 1566 1566 1566 1566 1566 1566 1566 1566 1566
1561 1562 1563 1565 1564 1564 1565 1564 1564 1565 1565 1564 1567 1566 1566 1567 1566 1565 1565 1565 1566 1567 1567 1567 1567 1569 1569 1569 1568 1568 1568 1568 1568
1563 1563 1564 1566 1566 1567 1567 1567 1567 1566 1568 1567 1566 1570 1569 1568 1568 1568 1567 1567 1567 1567 1568 1568 1568 1569 1570 1571 1571 1571 1571 1571 1571
1564 1564 1565 1567 1567 1567 1568 1568 1569 1569 1568 1569 1570 1570 1569 1569 1569 1569 1569 1569 1568 1569 1569 1569 1570 1571 1571 1572 1572 1573 1573 1573 1573
1567 1566 1567 1567 1568 1569 1568 1570 1570 1571 1570 1570 1571 1571 1572 1570 1570 1570 1570 1570 1569 1570 1569 1570 1572 1572 1573 1573 1573 1575 1575 1574 1575
1569 1568 1569 1569 1569 1570 1570 1570 1571 1572 1573 1573 1573 1572 1572 1570 1573 1572 1571 1571 1570 1567 1568 1570 1570 1571 1572 1573 1576 1577 1577 1577 1577
1569 1570 1570 1572 1571 1571 1572 1571 1572 1573 1574 1575 1575 1574 1572 1573 1575 1577 1575 1571 1572 1570 1567 1569 1570 1573 1573 1574 1577 1578 1578 1578 1578
1569 1569 1570 1572 1573 1572 1572 1572 1573 1574 1575 1576 1575 1574 1574 1574 1575 1579 1578 1577 1576 1574 1565 1568 1573 1575 1576 1578 1579 1578 1579 1579 1578
1568 1569 1569 1571 1574 1574 1573 1572 1573 1574 1575 1576 1576 1576 1576 1576 1578 1580 1579 1579 1579 1578 1576 1576 1577 1577 1578 1579 1579 1579 1580 1580 1580
1568 1569 1570 1570 1573 1576 1574 1574 1575 1575 1576 1577 1578 1577 1577 1578 1579 1579 1580 1580 1580 1579 1579 1578 1579 1580 1581 1580 1579 1580 1580 1581 1579
1564 1567 1567 1571 1573 1576 1576 1576 1576 1577 1577 1578 1578 1579 1578 1578 1579 1580 1580 1581 1581 1580 1580 1580 1580 1580 1581 1581 1580 1580 1580 1580 1580
1565 1565 1568 1570 1574 1575 1575 1576 1576 1577 1578 1578 1578 1580 1579 1579 1580 1580 1580 1580 1581 1581 1580 1581 1581 1582 1580 1580 1580 1580 1581 1581 1579
1566 1567 1568 1569 1574 1576 1575 1576 1576 1578 1578 1579 1579 1582 1581 1581 1580 1579 1580 1580 1581 1581 1581 1581 1581 1581 1580 1581 1581 1580 1581 1581 1580
1564 1566 1568 1571 1573 1575 1575 1576 1576 1577 1579 1579 1580 1583 1584 1583 1581 1581 1580 1580 1581 1583 1583 1582 1582 1581 1581 1581 1580 1580 1581 1581 1579
1564 1565 1567 1569 1573 1573 1574 1575 1575 1577 1578 1579 1579 1583 1586 1584 1584 1582 1582 1582 1582 1582 1584 1583 1582 1581 1581 1581 1580 1580 1580 1581 1578
1563 1564 1566 1568 1573 1573 1572 1572 1573 1575 1576 1578 1580 1581 1583 1584 1585 1583 1582 1582 1583 1584 1584 1583 1583 1582 1581 1580 1580 1580 1580 1580 1577
1561 1561 1565 1568 1572 1572 1571 1571 1571 1574 1574 1576 1577 1578 1579 1581 1584 1584 1582 1582 1582 1582 1582 1582 1582 1582 1581 1580 1579 1579 1578 1577 1576
1560 1560 1563 1566 1570 1570 1569 1569 1570 1571 1572 1573 1574 1576 1577 1578 1579 1580 1582 1582 1581 1581 1582 1581 1581 1581 1580 1579 1579 1578 1576 1575 1574